This demonstration page uses our WeatherBlox Daily Observations layout. Learn more.

Left ArrowRight Arrow

40.92945, -100.16068

Hourly Observations for May 4, 2020

Temp ( °F °C ) Dew Point ( °F °C ) Humidity (%) Winds ( mph kmh ) Pressure ( in mb ) Visibility ( mi km ) Precip ( " mm )
12:15 am 00:15 Cloudy with Light Rain 60 15.4 53 11.4 77 77 SSE 13 20 29.88 1012 10 16.0934 0 0
12:35 am 00:35 Cloudy with Light Rain 61 16 52 11 72 72 SSE 12 19 29.91 1013 10 16.0934 0.01 0.254
12:55 am 00:55 Cloudy with Rain 59 15.1 53 11.6 80 80 S 7 11 29.93 1014 10 16.0934 0.04 1.016
1:15 am 01:15 Cloudy with Rain 59 14.8 53 11.5 81 81 Calm 29.95 1014 4 6.43736 0.05 1.27
1:35 am 01:35 Cloudy with Rain 58 14.4 53 11.6 83 83 SE 3 6 29.94 1014 7 11.26538 0.09 2.286
1:55 am 01:55 Cloudy with Rain 57 13.7 54 12.2 91 91 S 8 13 29.97 1015 7 11.26538 0.15 3.81
2:15 am 02:15 Cloudy with Rain 56 13.6 54 12 90 90 SSE 12 19 29.94 1014 7 11.26538 0.05 1.27
2:35 am 02:35 Cloudy with Light Rain 56 13.5 53 11.6 88 88 SE 10 17 29.92 1013 10 16.0934 0.07 1.778
2:55 am 02:55 Cloudy with Drizzle 56 13.3 53 11.4 88 88 SE 10 17 29.89 1012 10 16.0934 0.07 1.778
3:15 am 03:15 Cloudy 56 13.3 52 11.2 87 87 ESE 12 19 29.87 1012 10 16.0934 0 0
3:35 am 03:35 Cloudy with Light Rain 56 13.1 53 11.4 90 90 SE 10 17 29.87 1012 10 16.0934 0 0
3:55 am 03:55 Cloudy with Rain 55 13 53 11.5 91 91 SE 15 24 29.87 1012 10 16.0934 0.02 0.508
4:15 am 04:15 Cloudy with Rain 55 12.8 53 11.5 92 92 SE 5 7 29.9 1012 7 11.26538 0.04 1.016
4:35 am 04:35 Cloudy with Rain 55 12.8 53 11.5 92 92 NE 3 6 29.91 1013 7 11.26538 0.09 2.286
4:55 am 04:55 Cloudy with Rain 55 12.5 53 11.8 96 96 Calm 29.93 1013 5 8.0467 0.15 3.81
5:15 am 05:15 Cloudy 54 12.2 53 11.9 98 98 N 5 7 29.94 1014 5 8.0467 0.07 1.778
5:35 am 05:35 Cloudy with Rain 54 12.3 54 12 98 98 NW 7 11 29.97 1015 7 11.26538 0.15 3.81
5:55 am 05:55 Cloudy with Heavy Rain 54 12.2 54 12 99 99 NW 6 9 29.99 1016 3 4.82802 0.26 6.604
6:15 am 06:15 Cloudy with Heavy Rain 54 12.1 54 12 99 99 Calm 29.97 1015 4 6.43736 0.07 1.778
6:35 am 06:35 Cloudy with Rain 54 12 54 12 100 100 NE 5 7 29.95 1014 3 4.82802 0.17 4.318
6:55 am 06:55 Cloudy with Light Rain 53 11.8 53 11.8 100 100 E 9 15 29.91 1013 4 6.43736 0.22 5.588
7:15 am 07:15 Cloudy 53 11.7 53 11.5 99 99 E 14 22 29.89 1012 7 11.26538 0 0
7:35 am 07:35 Cloudy 53 11.6 52 11.1 97 97 E 8 13 29.9 1012 10 16.0934 0.01 0.254
7:55 am 07:55 Mostly Cloudy 53 11.5 52 11 97 97 E 9 15 29.89 1012 10 16.0934 0.01 0.254
8:15 am 08:15 Cloudy 53 11.6 52 11 96 96 E 7 11 29.89 1012 10 16.0934 0 0
8:35 am 08:35 Cloudy 54 12.3 53 11.4 94 94 E 9 15 29.88 1012 10 16.0934 0 0
8:55 am 08:55 Partly Cloudy 55 13 52 10.9 87 87 E 14 22 29.86 1011 10 16.0934 0 0
9:15 am 09:15 Sunny 56 13.4 51 10.5 83 83 E 14 22 29.86 1011 10 16.0934 0 0
9:35 am 09:35 Mostly Cloudy 57 14 52 11.1 83 83 E 13 20 29.86 1011 10 16.0934 0 0
9:55 am 09:55 Cloudy 56 13.3 50 10.2 82 82 E 10 17 29.88 1012 10 16.0934 0 0
10:15 am 10:15 Cloudy 56 13.5 51 10.5 82 82 ESE 10 17 29.88 1012 10 16.0934 0 0
10:35 am 10:35 Cloudy 57 14 51 10.8 81 81 ESE 12 19 29.87 1012 10 16.0934 0 0
10:55 am 10:55 Cloudy with Light Rain 56 13.6 51 10.8 83 83 SE 5 7 29.9 1012 10 16.0934 0 0
11:15 am 11:15 Cloudy with Light Rain 58 14.6 52 11.2 80 80 Calm 29.88 1012 10 16.0934 0 0
11:35 am 11:35 Cloudy 58 14.5 50 10.2 76 76 Calm 29.89 1012 10 16.0934 0 0
11:55 am 11:55 Cloudy 58 14.2 49 9.2 72 72 SE 9 15 29.9 1013 10 16.0934 0 0
12:15 pm 12:15 Cloudy 57 14.1 48 8.7 70 70 ESE 8 13 29.9 1013 10 16.0934 0 0
12:35 pm 12:35 Cloudy 58 14.2 48 9.1 72 72 E 8 13 29.89 1012 10 16.0934 0 0
12:55 pm 12:55 Cloudy 57 14.1 47 8.5 69 69 E 6 9 29.9 1013 10 16.0934 0 0
1:15 pm 13:15 Cloudy 58 14.2 48 9.1 72 72 E 6 9 29.89 1012 10 16.0934 0 0
1:35 pm 13:35 Cloudy 59 14.9 48 8.8 67 67 ESE 5 7 29.89 1012 10 16.0934 0 0
1:55 pm 13:55 Cloudy 60 15.6 49 9.3 66 66 E 8 13 29.88 1012 10 16.0934 0 0
2:15 pm 14:15 Cloudy 60 15.4 47 8.2 62 62 Calm 29.88 1012 10 16.0934 0 0
2:35 pm 14:35 Cloudy 60 15.5 48 8.7 64 64 Calm 29.89 1012 10 16.0934 0 0
2:55 pm 14:55 Cloudy 59 15.2 48 8.8 66 66 Calm 29.9 1013 10 16.0934 0 0
3:15 pm 15:15 Cloudy 59 15 47 8.4 65 65 Calm 29.91 1013 10 16.0934 0 0
3:35 pm 15:35 Cloudy 59 15.2 48 8.7 65 65 E 3 6 29.9 1013 10 16.0934 0 0
3:55 pm 15:55 Cloudy 59 15.1 49 9.4 69 69 NNE 5 7 29.91 1013 10 16.0934 0 0
4:15 pm 16:15 Cloudy 59 15 50 9.8 71 71 NE 6 9 29.91 1013 10 16.0934 0 0
4:35 pm 16:35 Cloudy 60 15.8 49 9.7 67 67 NE 6 9 29.9 1012 10 16.0934 0 0
4:55 pm 16:55 Mostly Cloudy 60 15.6 49 9.6 68 68 NNE 6 9 29.9 1013 10 16.0934 0 0
5:15 pm 17:15 Cloudy 59 15.1 49 9.3 69 69 N 5 7 29.93 1013 10 16.0934 0 0
5:35 pm 17:35 Cloudy with Drizzle 56 13.5 52 11.1 86 86 NNW 20 31 29.96 1015 5 8.0467 0 0
5:55 pm 17:55 Cloudy with Light Rain 54 12 51 10.7 92 92 N 24 39 29.98 1015 7 11.26538 0 0
6:15 pm 18:15 Cloudy 53 11.9 52 11.1 95 95 N 16 26 30 1016 10 16.0934 0 0
6:35 pm 18:35 Cloudy 54 12 50 10.2 89 89 N 16 26 30.01 1016 10 16.0934 0.01 0.254
6:55 pm 18:55 Mostly Cloudy 54 12.3 50 10.2 87 87 N 18 30 30.01 1016 10 16.0934 0.01 0.254
7:15 pm 19:15 Mostly Cloudy 55 12.8 50 10 83 83 N 20 31 30.02 1016 10 16.0934 0 0
7:35 pm 19:35 Cloudy 55 12.5 49 9.2 80 80 N 18 30 30.02 1017 10 16.0934 0 0
7:55 pm 19:55 Cloudy 55 12.5 48 9 79 79 NNW 18 30 30.04 1017 10 16.0934 0 0
8:15 pm 20:15 Partly Cloudy 54 12 48 8.8 81 81 NNW 18 30 30.04 1017 10 16.0934 0 0
8:35 pm 20:35 Partly Cloudy 52 11.2 48 8.7 85 85 N 9 15 30.05 1018 10 16.0934 0 0
8:55 pm 20:55 Partly Cloudy 52 11 47 8.6 85 85 NNW 14 22 30.08 1019 10 16.0934 0 0
9:15 pm 21:15 Clear 51 10.5 46 7.8 84 84 NNW 14 22 30.1 1019 10 16.0934 0 0
9:35 pm 21:35 Clear 50 9.9 46 7.5 85 85 NNW 9 15 30.1 1019 10 16.0934 0 0
9:55 pm 21:55 Clear 48 8.8 44 6.8 87 87 NW 9 15 30.11 1020 10 16.0934 0 0
10:15 pm 22:15 Clear 46 8 44 6.5 90 90 NW 6 9 30.11 1020 10 16.0934 0 0
10:35 pm 22:35 Clear 45 7.3 43 6.1 92 92 WNW 6 9 30.13 1020 10 16.0934 0 0
10:55 pm 22:55 Clear 45 7.3 44 6.5 95 95 W 8 13 30.14 1021 10 16.0934 0 0
11:15 pm 23:15 Clear 46 7.5 44 6.6 94 94 W 7 11 30.13 1020 10 16.0934 0 0
11:35 pm 23:35 Clear 46 7.5 43 6.2 92 92 WNW 8 13 30.13 1020 10 16.0934 0 0
11:55 pm 23:55 Clear 44 6.8 42 5.7 93 93 WNW 7 11 30.14 1021 10 16.0934 0 0

Powered by AerisWeather